Location: Newark
(25.6108°S, 54.5803°W)
Time: 07:58:18
(UTC+00:00)

Courier 1B - Pass Details

Date: 28 October 2020
Orbit: 962 x 1209 km, 28.3° (Epoch: 02 December)

Event Time Altitude Azimuth Distance (km) Brightness Sun altitude
Rises 06:46:42 0° 257° (WSW) 4,121 - -26.8°
Reaches altitude 10° 06:49:35 10° 258° (WSW) 3,153 - -26.3°
Exits shadow 06:54:33 42° 265° (W) 1,640 8.2 -25.3°
Maximum altitude 06:57:29 78° 342° (NNW) 1,215 7.8 -24.7°
Drops below altitude 10° 07:05:05 10° 67° (ENE) 3,039 10.5 -23.2°
Sets 07:07:49 0° 69° (ENE) 3,964 11.3 -22.7°
